Location: Durham
(54.7770°N, 1.5720°W)
Time: 16:28:09
(UTC+01:00)

ISS - Visible Passes

Search period start: 16 September 2014 00:00
Search period end: 26 September 2014 00:00
Orbit: 414 x 417 km, 51.6° (Epoch: 16 September)

Date Brightness Start Highest point End Pass type
(mag) Time Alt. Az. Time Alt. Az. Time Alt. Az.
16 Sep -1.0 05:18:05 10° S 05:20:22 17° SSE 05:22:38 10° ESE visible
17 Sep -0.8 04:31:14 12° SSE 04:31:54 13° SE 04:33:24 10° ESE visible
17 Sep -2.1 06:04:52 10° SW 06:07:56 34° SSE 06:11:01 10° E visible
18 Sep -1.8 05:17:25 17° SSW 05:19:19 28° SSE 05:22:14 10° E visible
19 Sep -1.5 04:30:39 22° SSE 04:30:43 22° SSE 04:33:21 10° E visible
19 Sep -2.6 06:03:45 10° WSW 06:06:58 45° S 06:10:11 10° E visible
20 Sep -0.4 03:43:49 12° ESE 03:43:49 12° ESE 03:44:17 10° ESE visible
20 Sep -2.5 05:16:41 24° SW 05:18:15 40° SSE 05:21:24 10° E visible
21 Sep -2.1 04:29:49 32° SSE 04:29:49 32° SSE 04:32:34 10° E visible
21 Sep -2.8 06:02:41 10° WSW 06:05:54 49° S 06:09:09 10° ESE visible
22 Sep -0.5 03:42:54 15° ESE 03:42:54 15° ESE 03:43:38 10° E visible
22 Sep -2.8 05:15:46 29° SW 05:17:05 48° S 05:20:20 10° E visible
23 Sep -2.4 04:28:50 40° SE 04:28:50 40° SE 04:31:28 10° E visible
23 Sep -2.7 06:01:42 11° W 06:04:41 43° S 06:07:53 10° ESE visible
24 Sep -0.5 03:41:53 15° E 03:41:53 15° E 03:42:32 10° E visible
24 Sep -2.9 05:14:45 33° WSW 05:15:49 48° S 05:19:03 10° ESE visible
25 Sep -2.2 04:27:49 37° SE 04:27:49 37° SE 04:30:08 10° ESE visible
25 Sep -2.3 06:00:41 13° W 06:03:16 32° SSW 06:06:17 10° SE visible
